Weather Roundup
Issued by NWS Springfield, MO

Home | Current Version | Previous Version | Text Only | Print | Product List | Glossary On
Versions: 1 2 3 4 5 6 7 8 9 10 11 12 13 14 15 16 17 18 19 20 21 22 23 24 25 26 27 28 29 30 31 32 33 34 35 36 37 38 39 40 41 42 43 44 45 46 47 48 49 50
000
NZUS99 KSGF 171007
HRRSGF

HOURLY WEATHER
NATIONAL WEATHER SERVICE SPRINGFIELD MO
500 AM CDT WED SEP 17 2014

......SGF CWA......

CITY           SKY/WX    TMP DP  RH WIND       PRES   REMARKS
SPRINGFIELD    CLOUDY    64  63  96 S12       29.98F FOG
JOPLIN         PTCLDY    68  66  93 S13       29.95F
WEST PLAINS    CLOUDY    63  58  83 SE3       30.03F
ROLLA          CLOUDY    56  54  93 SE7       30.01F
OSAGE BEACH    CLOUDY    61  57  88 SE3       29.98F
BRANSON        FOG       64  63  94 SE6       30.01F VSB<1/4

......SURROUNDING SGF CWA......

CITY           SKY/WX    TMP DP  RH WIND       PRES   REMARKS
CHANUTE        CLOUDY    68  67  96 S13       29.91F FOG
PARSONS        CLOUDY    68  68 100 S7        29.94F FOG
COFFEYVILLE    PTCLDY    67  66  97 S8        29.92F FOG
EMPORIA        CLOUDY    65  64  97 S10       29.91F FOG
GROVE OK       PTCLDY    70  70 100 S6        29.96F
ROGERS AR      CLOUDY    67  65  93 SE5       30.01F FOG
SILOAM SPRINGS CLOUDY    66  63  88 S5        30.00F
HARRISON AR    FOG       64  64 100 SE6       30.01F VSB 1/4
NEAR YELLVILLE CLOUDY    64  57  77 CALM      30.01F

......KANSAS AND MISSOURI......

CITY           SKY/WX    TMP DP  RH WIND       PRES   REMARKS
KANSAS CTY INT CLOUDY    63  60  90 SE6       29.93F
DOWNTOWN KC    CLOUDY    65  59  81 E5        29.92F
COLUMBIA         N/A    N/A N/A N/A MISG      29.99F
SEDALIA        CLOUDY    63  60  90 SE7       29.96F
ST JOSEPH      CLOUDY    63  59  87 SE3       29.93F
ST LOUIS       PTCLDY    54  51  90 CALM      30.05F
SPIRIT OF STL  PTCLDY    48  48 100 CALM      30.04F FOG
KIRKSVILLE     CLOUDY    55  53  93 SE5       30.01F
WICHITA        MOCLDY    67  65  93 S8        29.93F FOG
TOPEKA         CLOUDY    65  64  97 NE5       29.91F
OLATHE         TSTM      62  61  96 W6        29.96R FOG

......TENNESSEE......

CITY           SKY/WX    TMP DP  RH WIND       PRES   REMARKS
MEMPHIS        CLEAR     64  59  83 NE6       30.02S
NASHVILLE      PTCLDY    56  54  93 N8        30.03S

......ARKANSAS.......

CITY           SKY/WX    TMP DP  RH WIND       PRES   REMARKS
FAYETTEVILLE   CLOUDY    67  67 100 S6        30.00F
FT SMITH       CLOUDY    70  67  90 E7        29.99F
LITTLE ROCK    CLEAR     64  58  80 NE3       30.02S

......OKLAHOMA.......

CITY           SKY/WX    TMP DP  RH WIND       PRES   REMARKS
TULSA          PTCLDY    71  69  93 S7        29.94F FOG
PONCA CITY     CLEAR     70  67  90 S3        29.94F
MCALESTER      PTCLDY    68  66  93 CALM      29.98F FOG
OKLAHOMA CITY  PTCLDY    70  67  90 S5        29.97F

......IOWA............

CITY           SKY/WX    TMP DP  RH WIND       PRES   REMARKS
DES MOINES     CLOUDY    56  50  80 S7        29.98F
QUAD CITIES    PTCLDY    46  43  89 CALM      30.04S

......ILLINOIS........

CITY           SKY/WX    TMP DP  RH WIND       PRES   REMARKS
QUINCY         MOCLDY    54  50  86 S9        30.01F
CHICAGO        PTCLDY    50  44  80 CALM      30.04F




USA.gov is the U.S. government's official web portal to all federal, state and local government web resources and services.